When you browse on this site, cookies collect data to enhance your experience and personalize the content and advertising you see.
Visit our Privacy Policy to learn more. By continuing to use the site, you agree to this use of cookies and data.
  • In Austria
  • List of Countries
  • For 7 days
  • Water Temperature
  • Satellite Maps
  • Weather Map
  • News
  • Weather Widgets
  • user-avatar
    Login

    Hourly Weather Policko

    Today, 21 March, Thursday

    Time Temperature Precipitation Wind Pressure Humidity
    00:00 +7°C° 0 mm 3 mps 769 mmHg 76%
    01:00 +5°C° 0 mm 3 mps 769 mmHg 81%
    02:00 +5°C° 0 mm 3 mps 769 mmHg 85%
    03:00 +6°C° 0 mm 2 mps 769 mmHg 89%
    04:00 +6°C° 0 mm 2 mps 769 mmHg 93%
    05:00 +6°C° 0 mm 2 mps 769 mmHg 95%
    06:00 +6°C° 0 mm 2 mps 769 mmHg 96%
    07:00 +6°C° 0 mm 2 mps 769 mmHg 97%
    08:00 +7°C° 0 mm 3 mps 769 mmHg 90%
    09:00 +9°C° 0 mm 3 mps 770 mmHg 83%
    10:00 +11°C° 0 mm 3 mps 770 mmHg 76%
    11:00 +11°C° 0 mm 4 mps 770 mmHg 74%
    12:00 +12°C° 0 mm 4 mps 769 mmHg 72%
    13:00 +12°C° 0 mm 4 mps 769 mmHg 71%
    14:00 +13°C° 0 mm 3 mps 769 mmHg 70%
    15:00 +13°C° 0 mm 3 mps 769 mmHg 70%
    16:00 +13°C° 0 mm 3 mps 768 mmHg 69%
    17:00 +13°C° 0 mm 3 mps 768 mmHg 73%
    18:00 +12°C° 0 mm 3 mps 768 mmHg 76%
    19:00 +12°C° 0 mm 2 mps 768 mmHg 80%
    20:00 +12°C° 0 mm 2 mps 768 mmHg 83%
    21:00 +10°C° 0 mm 2 mps 769 mmHg 87%
    22:00 +10°C° 0 mm 2 mps 769 mmHg 90%
    23:00 +9°C° 0 mm 2 mps 769 mmHg 91%

    Tomorrow, 22 March, Friday

    Time Temperature Precipitation Wind Pressure Humidity
    00:00 +9°C° 0 mm 2 mps 769 mmHg 92%
    01:00 +9°C° 0 mm 2 mps 769 mmHg 93%
    02:00 +9°C° 0 mm 2 mps 769 mmHg 93%
    03:00 +9°C° 0 mm 2 mps 769 mmHg 94%
    04:00 +10°C° 0 mm 1 mps 769 mmHg 94%
    05:00 +10°C° 0 mm 1 mps 769 mmHg 95%
    06:00 +9°C° 0 mm 1 mps 769 mmHg 95%
    07:00 +9°C° 0 mm 1 mps 769 mmHg 96%
    08:00 +11°C° 0 mm 1 mps 769 mmHg 88%
    09:00 +13°C° 0 mm 1 mps 769 mmHg 80%
    10:00 +14°C° 0 mm 1 mps 769 mmHg 72%
    11:00 +15°C° 0 mm 1 mps 769 mmHg 67%
    12:00 +17°C° 0 mm 2 mps 769 mmHg 62%
    13:00 +18°C° 0 mm 2 mps 769 mmHg 57%
    14:00 +19°C° 0 mm 1 mps 768 mmHg 56%
    15:00 +19°C° 0 mm 1 mps 768 mmHg 56%
    16:00 +17°C° 0 mm 0 mps 767 mmHg 55%
    17:00 +18°C° 0 mm 1 mps 767 mmHg 60%
    18:00 +16°C° 0 mm 1 mps 767 mmHg 65%
    19:00 +15°C° 0 mm 1 mps 767 mmHg 70%
    20:00 +14°C° 0 mm 2 mps 767 mmHg 75%
    21:00 +13°C° 0 mm 2 mps 767 mmHg 79%
    22:00 +12°C° 0 mm 2 mps 767 mmHg 84%
    23:00 +10°C° 0 mm 2 mps 766 mmHg 86%

    Day after tomorrow, 23 March, Saturday

    Time Temperature Precipitation Wind Pressure Humidity
    00:00 +10°C° 0 mm 2 mps 766 mmHg 88%
    01:00 +10°C° 0 mm 2 mps 766 mmHg 90%
    02:00 +9°C° 0 mm 2 mps 766 mmHg 91%
    03:00 +9°C° 0 mm 2 mps 765 mmHg 91%
    04:00 +9°C° 0 mm 2 mps 765 mmHg 91%
    05:00 +9°C° 0 mm 2 mps 765 mmHg 90%
    06:00 +9°C° 0 mm 2 mps 764 mmHg 88%
    07:00 +9°C° 0 mm 2 mps 764 mmHg 87%
    08:00 +12°C° 0 mm 2 mps 764 mmHg 78%
    09:00 +14°C° 0 mm 2 mps 764 mmHg 69%
    10:00 +16°C° 0 mm 2 mps 764 mmHg 61%
    11:00 +17°C° 0 mm 3 mps 764 mmHg 57%
    12:00 +18°C° 0 mm 3 mps 764 mmHg 53%
    13:00 +20°C° 0 mm 3 mps 763 mmHg 49%
    14:00 +19°C° 0 mm 3 mps 763 mmHg 51%
    15:00 +19°C° 0 mm 3 mps 763 mmHg 52%
    16:00 +19°C° 0 mm 4 mps 763 mmHg 54%
    17:00 +17°C° 0 mm 4 mps 763 mmHg 61%
    18:00 +14°C° 0 mm 4 mps 764 mmHg 68%
    19:00 +12°C° 0 mm 5 mps 764 mmHg 75%
    20:00 +11°C° 0 mm 4 mps 765 mmHg 74%
    21:00 +8°C° 0 mm 4 mps 765 mmHg 73%
    22:00 +8°C° 0 mm 3 mps 766 mmHg 71%
    23:00 +7°C° 0 mm 3 mps 766 mmHg 68%

    24 March, Sunday

    Time Temperature Precipitation Wind Pressure Humidity
    00:00 +7°C° 0 mm 3 mps 766 mmHg 64%
    01:00 +5°C° 0 mm 3 mps 766 mmHg 61%
    02:00 +5°C° 0 mm 2 mps 766 mmHg 62%
    03:00 +5°C° 0 mm 2 mps 766 mmHg 63%
    04:00 +4°C° 0 mm 2 mps 767 mmHg 65%
    05:00 +4°C° 0 mm 2 mps 767 mmHg 65%
    06:00 +4°C° 0 mm 2 mps 767 mmHg 66%
    07:00 +4°C° 0 mm 2 mps 767 mmHg 67%
    08:00 +5°C° 0 mm 2 mps 766 mmHg 59%
    09:00 +7°C° 0 mm 2 mps 766 mmHg 52%
    10:00 +8°C° 0 mm 2 mps 766 mmHg 45%
    11:00 +9°C° 0 mm 2 mps 766 mmHg 41%
    12:00 +10°C° 0 mm 2 mps 765 mmHg 37%
    13:00 +12°C° 0 mm 1 mps 765 mmHg 33%
    14:00 +13°C° 0 mm 1 mps 764 mmHg 33%
    15:00 +13°C° 0 mm 1 mps 763 mmHg 33%
    16:00 +13°C° 0 mm 1 mps 763 mmHg 32%
    17:00 +11°C° 0 mm 1 mps 763 mmHg 37%
    18:00 +10°C° 0 mm 1 mps 762 mmHg 42%
    19:00 +8°C° 0 mm 2 mps 762 mmHg 46%
    20:00 +8°C° 0 mm 1 mps 762 mmHg 48%
    21:00 +8°C° 0 mm 1 mps 762 mmHg 51%
    22:00 +7°C° 0 mm 1 mps 761 mmHg 53%
    23:00 +7°C° 0 mm 1 mps 761 mmHg 55%

    25 March, Monday

    Time Temperature Precipitation Wind Pressure Humidity
    00:00 +7°C° 0 mm 1 mps 761 mmHg 56%
    01:00 +7°C° 0 mm 1 mps 760 mmHg 58%
    02:00 +7°C° 0 mm 1 mps 760 mmHg 60%
    03:00 +6°C° 0 mm 1 mps 760 mmHg 62%
    04:00 +6°C° 0 mm 1 mps 760 mmHg 64%
    05:00 +5°C° 0 mm 2 mps 760 mmHg 66%
    06:00 +5°C° 0 mm 2 mps 759 mmHg 68%
    07:00 +3°C° 0 mm 3 mps 759 mmHg 70%
    08:00 +5°C° 0 mm 4 mps 759 mmHg 62%
    09:00 +6°C° 0 mm 5 mps 759 mmHg 54%
    10:00 +7°C° 0 mm 6 mps 759 mmHg 45%
    11:00 +8°C° 0 mm 6 mps 758 mmHg 48%
    12:00 +8°C° 0 mm 7 mps 758 mmHg 52%
    13:00 +8°C° 0 mm 7 mps 757 mmHg 55%
    14:00 +7°C° 0.5 mm 8 mps 757 mmHg 58%
    15:00 +6°C° 0.5 mm 8 mps 756 mmHg 61%
    16:00 +5°C° 0.5 mm 8 mps 756 mmHg 64%
    17:00 +5°C° 0.3 mm 7 mps 756 mmHg 65%
    18:00 +4°C° 0.3 mm 6 mps 756 mmHg 66%
    19:00 +3°C° 0.3 mm 5 mps 756 mmHg 67%
    20:00 +2°C° 0 mm 6 mps 756 mmHg 68%
    21:00 +2°C° 0 mm 6 mps 756 mmHg 70%
    22:00 +2°C° 0 mm 6 mps 756 mmHg 72%
    23:00 0°C° 0 mm 7 mps 755 mmHg 71%

    26 March, Tuesday

    Time Temperature Precipitation Wind Pressure Humidity
    00:00 0°C° 0 mm 7 mps 755 mmHg 71%
    01:00 0°C° 0 mm 7 mps 755 mmHg 71%
    02:00 0°C° 0 mm 8 mps 755 mmHg 70%
    03:00 0°C° 0 mm 8 mps 755 mmHg 68%
    04:00 -1°C° 0 mm 8 mps 755 mmHg 67%
    05:00 -1°C° 0 mm 8 mps 755 mmHg 63%
    06:00 -1°C° 0 mm 8 mps 755 mmHg 59%
    07:00 0°C° 0 mm 9 mps 756 mmHg 56%
    08:00 0°C° 0.1 mm 9 mps 757 mmHg 54%
    09:00 0°C° 0.1 mm 9 mps 757 mmHg 51%
    10:00 0°C° 0.1 mm 9 mps 758 mmHg 49%
    11:00 +1°C° 0 mm 9 mps 759 mmHg 46%
    12:00 +1°C° 0 mm 9 mps 759 mmHg 44%
    13:00 +2°C° 0 mm 9 mps 760 mmHg 41%
    14:00 +2°C° 0 mm 8 mps 761 mmHg 42%
    15:00 +2°C° 0 mm 8 mps 761 mmHg 44%
    16:00 +1°C° 0 mm 8 mps 762 mmHg 46%
    17:00 +2°C° 0 mm 7 mps 762 mmHg 48%
    18:00 +1°C° 0 mm 6 mps 763 mmHg 51%
    19:00 0°C° 0 mm 5 mps 763 mmHg 54%
    20:00 0°C° 0 mm 5 mps 764 mmHg 56%
    21:00 -1°C° 0 mm 5 mps 764 mmHg 57%
    22:00 -1°C° 0 mm 5 mps 765 mmHg 59%
    23:00 -2°C° 0 mm 5 mps 765 mmHg 61%
    Show more